#timestamp,LO_Frequency,Hit 
1504414815.6,286046994.3,N
1504414835.4,286046992.1,N
1504414855.3,286046992.7,N
1504414875.1,286046994.8,N
1504414895.8,286046992.9,N
1504414915.7,286046992.3,N
1504414935.5,286046992.3,N
1504414955.3,286046991.4,N
1504414975.2,286046993.2,N
1504414995.9,286046990.4,N
1504415015.7,286046989.4,N
1504415035.6,286046990.6,N
1504415055.4,286046990.2,N
1504415075.2,286046997.4,N
1504415095.1,286046998.6,N
1504415096.0,286046998.6,N
1504415115.8,286046999.9,N
1504415135.6,286046995.0,N
1504415155.4,286046995.5,N
1504415175.3,286046995.4,N
1504415195.1,286047000.4,N
1504415215.8,286046998.4,N
1504415235.7,286047000.8,N
1504415255.5,286047002.7,N
1504415275.3,286047002.1,N
1504415295.2,286047001.8,N
1504415315.9,286047003.9,N
1504415335.7,286047002.2,N
1504415355.6,286046997.2,N
1504415375.4,286046996.1,N
1504415395.2,286046996.7,N
1504415415.1,286047000.7,N
1504415416.0,286047000.7,N
1504415435.8,286047001.2,N
1504415455.6,286047000.1,N
1504415475.5,286047000.5,N
1504415495.3,286046998.2,N
1504415515.1,286046997.4,N
1504415535.8,286046996.3,N
1504415555.7,286046990.3,N
1504415575.5,286046989.6,N
1504415595.3,286046991.3,N
1504415615.2,286046995.8,N
1504415635.9,286046996.3,N
1504415655.7,286046996.0,N
1504415675.6,286046993.4,N
1504415695.4,286046990.2,N
1504415715.2,286046991.6,N
1504415735.1,286046991.1,N
1504415736.0,286046991.1,N
1504415755.8,286046991.2,N
1504415775.6,286046990.5,N
1504415795.5,286046993.2,N
1504415815.3,286046994.4,N
1504415835.1,286046994.7,N
1504415855.9,286046997.9,N
1504415875.7,286047000.3,N
1504415895.5,286047000.0,N
1504415915.3,286046997.4,N
1504415935.2,286046995.6,N
1504415955.0,286046999.0,N
1504415955.9,286046999.0,N
1504415975.7,286047002.2,N
1504415995.6,286046996.5,N
1504416015.4,286046997.9,N
1504416035.2,286046995.4,N
1504416055.1,286046995.7,N
1504416056.0,286046995.7,N
1504416075.8,286046997.1,N
1504416095.6,286046999.3,N
1504416115.5,286046998.7,N
1504416135.3,286046994.9,N
1504416155.1,286046995.3,N
1504416175.9,286046995.6,N
1504416195.7,286046997.5,N
1504416215.5,286046994.0,N
1504416235.4,286046994.0,N
1504416255.2,286046997.1,N
1504416275.0,286047001.5,N
1504416275.9,286047001.5,N
1504416295.8,286047002.4,N
1504416315.6,286046998.7,N
1504416335.4,286047000.4,N
1504416355.2,286047000.4,N
1504416375.1,286046999.1,N
1504416376.0,286046999.1,N
1504416395.8,286046995.2,N
1504416415.2,286046995.8,N
1504416435.9,286046995.3,N
1504416455.7,286046994.9,N
1504416475.6,286046999.0,N
1504416495.4,286047004.8,N
1504416515.2,286047005.8,N
1504416535.1,286047004.0,N
1504416536.0,286047004.0,N
1504416555.8,286046998.5,N
1504416575.6,286046996.7,N
1504416595.4,286046999.5,N
1504416615.3,286046999.4,N
1504416635.1,286046997.6,N
1504416655.8,286046996.2,N
1504416675.7,286046992.3,N
1504416695.5,286046990.7,N
1504416715.3,286046992.4,N
1504416735.2,286046992.4,N
1504416755.9,286046992.6,N
1504416775.7,286046993.4,N
1504416795.6,286046994.0,N
1504416815.4,286046995.1,N
1504416835.2,286046996.2,N
1504416855.1,286046997.0,N
1504416856.0,286046997.0,N
1504416875.8,286046996.0,N
1504416895.6,286046993.7,N
1504416915.5,286046996.2,N
1504416935.3,286046997.1,N
1504416955.1,286046995.3,N
1504416975.8,286046997.5,N
1504416995.7,286047000.4,N
1504417015.5,286046998.8,N
1504417035.3,286046998.1,N
1504417055.2,286047001.5,N
1504417075.0,286046999.7,N
1504417075.9,286046999.7,N
1504417095.7,286046999.0,N
1504417115.6,286046998.3,N
1504417135.4,286047001.4,N
1504417155.2,286047000.4,N
1504417175.1,286046999.5,N
1504417176.0,286046999.5,N
1504417195.8,286046997.0,N
1504417215.6,286046993.3,N
1504417235.5,286046992.9,N
1504417255.3,286046992.4,N
1504417275.1,286046992.5,N
1504417295.9,286046994.8,N
1504417315.7,286046994.5,N
1504417335.5,286046998.5,N
1504417355.4,286047003.6,N
1504417375.2,286047007.5,N
1504417395.0,286047007.3,N
1504417395.9,286047007.3,N
1504417415.7,286047005.7,N
1504417435.6,286046999.8,N
1504417455.4,286046998.2,N
1504417475.2,286046998.3,N
1504417495.1,286046998.6,N
1504417496.0,286046998.6,N
1504417515.8,286046999.4,N
1504417535.6,286047003.9,N
1504417555.5,286047003.7,N
1504417575.3,286046999.7,N
1504417595.1,286046998.5,N
1504417615.9,286047001.0,N
1504417635.7,286047003.9,N
1504417655.5,286046998.1,N
1504417675.4,286046998.8,N
1504417695.2,286046997.9,N
1504417715.0,286047001.5,N
1504417715.9,286047001.5,N
1504417735.7,286046998.2,N
1504417755.6,286046992.7,N
1504417775.4,286046992.9,N
1504417795.2,286046991.7,N
1504417815.1,286046999.6,N
1504417816.0,286046999.6,N
1504417835.8,286046998.7,N
1504417855.6,286047003.7,N
1504417875.5,286047002.9,N
1504417895.3,286046998.3,N
1504417915.1,286046996.7,N
1504417935.9,286046999.1,N
1504417955.7,286046995.0,N
1504417975.5,286046999.0,N
1504417995.4,286047001.4,N
1504418015.2,286047002.0,N
1504418035.0,286047000.3,N
1504418035.9,286047000.3,N
1504418055.8,286046997.5,N
1504418075.6,286046995.1,N
1504418095.4,286046995.8,N
1504418115.2,286047002.8,N
1504418135.1,286046998.0,N
1504418136.0,286046998.0,N
1504418155.8,286046994.7,N
1504418175.6,286046994.0,N
1504418195.5,286046994.1,N
1504418215.3,286046997.8,N
1504418235.1,286047002.5,N
1504418255.9,286047002.3,N
1504418275.7,286046998.7,N
1504418295.5,286047002.8,N
1504418315.4,286046998.5,N
1504418335.2,286047002.5,N
1504418355.0,286046998.7,N
1504418355.9,286046998.7,N
1504418375.8,286046999.8,N
1504418395.6,286047000.8,N
